[Iaude] MPEC L62: 2024 JV33 [a=2.84,e=0.66,i=9.5,H=20.9,PHA]

mpec at cfa.harvard.edu mpec at cfa.harvard.edu
Thu Jun 6 06:57:31 EDT 2024


M.P.E.C. 2024-L62                                  Issued 2024 June 6, 10:56 UT

     The Minor Planet Electronic Circulars contain information on unusual
         minor planets, routine data on comets and natural satellites,
         and occasional editorial announcements.  They are published
    on behalf of Division F of the International Astronomical Union by the
          Minor Planet Center, Smithsonian Astrophysical Observatory,
                          Cambridge, MA 02138, U.S.A.
			  
             Prepared using the Tamkin Foundation Computer Network

                              MPC at CFA.HARVARD.EDU
            URL https://www.minorplanetcenter.net/    ISSN 1523-6714

                                   2024 JV33                                    


Observations:
     K24J33V*1C2024 05 04.35491515 10 08.933+07 40 47.42         21.49GVEL062G96
     K24J33V 1C2024 05 04.36006115 10 08.656+07 40 54.48         21.73GVEL062G96
     K24J33V 1C2024 05 04.36519115 10 08.396+07 41 01.90         21.07GVEL062G96
     K24J33V 1C2024 05 04.37032615 10 08.090+07 41 09.10         20.94GVEL062G96
     K24J33V 1C2024 06 02.25618 14 37 04.46 +18 31 16.5                VEL062G96
     K24J33V 1C2024 06 02.26135 14 37 03.95 +18 31 21.8                VEL062G96
     K24J33V  C2024 06 05.42636714 33 12.880+19 28 58.63         21.04wXEL062F51
     K24J33V  C2024 06 05.43733114 33 12.019+19 29 09.99         21.03wXEL062F51
     K24J33V  C2024 06 05.44830414 33 11.159+19 29 21.00         21.06wXEL062F51
     K24J33V 2C2024 06 05.94332414 32 36.974+19 37 55.59         20.7 GVEL062J04
     K24J33V 2C2024 06 05.94883114 32 36.527+19 38 01.87         20.6 GVEL062J04
     K24J33V 2C2024 06 05.95432514 32 36.045+19 38 07.50               VEL062J04
     K24J33V KC2024 06 06.11354714 32 25.14 +19 40 47.6          21.0 GVEL062H21
     K24J33V KC2024 06 06.11639114 32 24.92 +19 40 50.4          21.0 GVEL062H21
     K24J33V KC2024 06 06.11923514 32 24.71 +19 40 53.4          20.7 GVEL062H21
     K24J33V KC2024 06 06.12132114 32 24.55 +19 40 55.7          20.9 GVEL062H21
     K24J33V KB2024 06 06.18207 14 32 19.980+19 41 58.74         21.0 GVEL062734
     K24J33V KB2024 06 06.19657 14 32 18.823+19 42 11.92         20.9 GVEL062734
     K24J33V KC2024 06 06.20926414 32 18.114+19 42 28.73         20.69GVEL062I52
     K24J33V !C2024 06 06.21228 14 32 18.06 +19 42 31.1          20.4 GVEL062673
     K24J33V KC2024 06 06.21300714 32 17.837+19 42 32.58         21.16GVEL062I52
     K24J33V KC2024 06 06.21676814 32 17.585+19 42 36.94         20.89GVEL062I52
     K24J33V !C2024 06 06.21729 14 32 17.69 +19 42 36.4                VEL062673
     K24J33V KC2024 06 06.22152614 32 17.178+19 42 41.33         20.56GVEL062I52

Observer details:
673 Table Mountain Observatory, Wrightwood.  Observer J. Pittichova.  1.0-m
    f/15 reflector + CCD.
734 Farpoint Observatory, Eskridge.  Observers D. Cromer, G. Hug, D. Goodin,
    R. Valentine, P. Lessig.  Measurers P. Lessig, D. Goodin.  0.69-m f/3.54
    reflector + CMO.
F51 Pan-STARRS 1, Haleakala.  Observers J. Herman, T. Lowe, P. Minguez, A.
    Schultz, I. Smith.  Measurers K. Chambers, T. de Boer, J. Fairlamb, H.
    Gao, M. Huber, C.-C. Lin, E. Magnier, Y. Ramanjooloo, R. Wainscoat, R.
    Weryk.  1.8-m Ritchey-Chretien + CCD.
G96 Mt. Lemmon Survey.  Observers H. Groeller, J. B. Fazekas.  Measurers T.
    Beuden, V. F. Carvajal, D. Fay, J. B. Fazekas, D. C. Fuls, A. R. Gibbs, A.
    D. Grauer, H. Groeller, J. K. Hogan, R. A. Kowalski, S. M. Larson, G. J.
    Leonard, D. Rankin, R. L. Seaman, F. C. Shelly, K. W. Wierzchos, B. Gray.
    1.5-m reflector + 10K CCD.
H21 Astronomical Research Observatory, Westfield.  Observer R. Holmes.
    Measurers T. Linder, R. Holmes, L. Horn.  0.81-m f/4.0 astrograph + CCD.
I52 Steward Observatory, Mt. Lemmon Station.  Observer D. Rankin.  Measurers
    T. Beuden, V. F. Carvajal, D. Fay, J. B. Fazekas, D. C. Fuls, A. R. Gibbs,
    A. D. Grauer, H. Groeller, J. K. Hogan, R. A. Kowalski, S. M. Larson, G.
    J. Leonard, D. Rankin, R. L. Seaman, F. C. Shelly, K. W. Wierzchos.  1.0-m
    prime focus + CCD.
J04 ESA Optical Ground Station, Tenerife.  Observers D. Abreu, M. Micheli, F.
    Ocana, L. Conversi.  Measurers M. Micheli, R. Kresken, F. Ocana.
    1.0-m f/4.4 reflector + CCD.

Orbital elements:
2024 JV33                                           PHA, Earth MOID = 0.0030 AU
Epoch 2024 Mar. 31.0 TT = JDT 2460400.5                 Veres                   
M 333.68682              (2000.0)            P               Q                  
n   0.20569754     Peri.  156.33094     +0.64890622     +0.75740598             
a   2.8421695      Node   153.94633     -0.72179128     +0.64292391             
e   0.6550098      Incl.    9.50177     -0.24070328     +0.11395185             
P   4.79           H   20.97          G   0.15           U   7                  
Residuals in seconds of arc
240504 G96  0.1-  0.1-    240605 F51  0.0   0.0     240606 734  0.4+  0.3+
240504 G96  0.1-  0.2-    240605 J04  0.1+  0.3-    240606 734  0.0   1.3-
240504 G96  0.3+  0.1+    240605 J04  0.0   0.3+    240606 I52  0.4-  0.1-
240504 G96  0.1-  0.1+    240605 J04  0.7-  0.3+    240606 673  0.1-  0.1-
240602 G96  0.0   0.0     240606 H21  0.1-  0.1+    240606 I52  0.2-  0.1-
240602 G96 (1.2-  0.6-)   240606 H21  0.1-  0.0     240606 I52  0.5+  0.4+
240605 F51  0.2-  0.1+    240606 H21  0.1+  0.0     240606 673  0.3+  0.0
240605 F51  0.1-  0.2+    240606 H21  0.1+  0.1+    240606 I52  0.0   0.1-

Ephemeris:
2024 JV33                a,e,i = 2.84, 0.66, 10                  q = 0.9805
Date    TT    R. A. (2000) Decl.     Delta      r    Elong.  Phase     V
2024 05 07    15 07 50.7 +08 42 58   0.5631  1.5361   154.3    16.5    21.5
...
2024 05 22    14 51 15.2 +14 36 03   0.4634  1.4052   141.6    26.6    21.2
...
2024 05 30    14 41 09.4 +17 27 49   0.4225  1.3373   132.8    33.8    21.1
...
2024 06 05    14 33 44.3 +19 21 29   0.3955  1.2879   126.1    39.5    21.1
2024 06 06    14 32 33.0 +19 38 57   0.3912  1.2798   125.0    40.5    21.1
2024 06 07    14 31 22.9 +19 55 58   0.3870  1.2717   123.8    41.5    21.1
...
2024 06 13    14 24 52.3 +21 28 55   0.3623  1.2246   117.3    47.5    21.0
...
2024 06 21    14 17 51.9 +23 10 37   0.3297  1.1654   108.9    55.6    20.9
...
2024 07 06    14 10 20.8 +25 39 27   0.2635  1.0705    94.6    71.2    20.7

M. P. C. Staff               (C) Copyright 2024 MPC           M.P.E.C. 2024-L62





More information about the Iaude mailing list